Year,Month,Day,Hour,Minute,Value (Times are PST for temperature in C)
2009,04,24,00,00,2.20
2009,04,24,00,01,2.20
2009,04,24,00,02,2.20
2009,04,24,00,03,2.20
2009,04,24,00,04,2.20
2009,04,24,00,05,2.20
2009,04,24,00,06,2.20
2009,04,24,00,07,2.20
2009,04,24,00,08,2.10
2009,04,24,00,09,2.10
2009,04,24,00,10,2.10
2009,04,24,00,11,2.10
2009,04,24,00,12,2.10
2009,04,24,00,13,2.10
2009,04,24,00,14,2.10
2009,04,24,00,15,2.10
2009,04,24,00,16,2.10
2009,04,24,00,17,2.10
2009,04,24,00,18,2.10
2009,04,24,00,19,2.10
2009,04,24,00,20,2.10
2009,04,24,00,21,2.10
2009,04,24,00,22,2.10
2009,04,24,00,23,2.10
2009,04,24,00,24,2.10
2009,04,24,00,25,2.10
2009,04,24,00,26,2.10
2009,04,24,00,27,2.10
2009,04,24,00,28,2.10
2009,04,24,00,29,2.10
2009,04,24,00,30,2.10
2009,04,24,00,31,2.00
2009,04,24,00,32,2.00
2009,04,24,00,33,2.00
2009,04,24,00,34,2.00
2009,04,24,00,35,2.00
2009,04,24,00,36,2.00
2009,04,24,00,37,2.10
2009,04,24,00,38,2.10
2009,04,24,00,39,2.10
2009,04,24,00,40,2.10
2009,04,24,00,41,2.10
2009,04,24,00,42,2.10
2009,04,24,00,43,2.10
2009,04,24,00,44,2.10
2009,04,24,00,45,2.10
2009,04,24,00,46,2.10
2009,04,24,00,47,2.00
2009,04,24,00,48,2.00
2009,04,24,00,49,2.00
2009,04,24,00,50,2.00
2009,04,24,00,51,2.00
2009,04,24,00,52,2.00
2009,04,24,00,53,2.10
2009,04,24,00,54,2.10
2009,04,24,00,55,2.10
2009,04,24,00,56,2.10
2009,04,24,00,57,2.10
2009,04,24,00,58,2.20
2009,04,24,00,59,2.20
2009,04,24,01,00,2.20
2009,04,24,01,01,2.20
2009,04,24,01,02,2.20
2009,04,24,01,03,2.20
2009,04,24,01,04,2.20
2009,04,24,01,05,2.20
2009,04,24,01,06,2.20
2009,04,24,01,07,2.10
2009,04,24,01,08,2.10
2009,04,24,01,09,2.10
2009,04,24,01,10,2.10
2009,04,24,01,11,2.10
2009,04,24,01,12,2.10
2009,04,24,01,13,2.10
2009,04,24,01,14,2.10
2009,04,24,01,15,2.10
2009,04,24,01,16,2.10
2009,04,24,01,17,2.10
2009,04,24,01,18,2.10
2009,04,24,01,19,2.10
2009,04,24,01,20,2.10
2009,04,24,01,21,2.10
2009,04,24,01,22,2.10
2009,04,24,01,23,2.10
2009,04,24,01,24,2.10
2009,04,24,01,25,2.10
2009,04,24,01,26,2.10
2009,04,24,01,27,2.10
2009,04,24,01,28,2.10
2009,04,24,01,29,2.10
2009,04,24,01,30,2.00
2009,04,24,01,31,2.00
2009,04,24,01,32,2.00
2009,04,24,01,33,2.00
2009,04,24,01,34,2.00
2009,04,24,01,35,2.00
2009,04,24,01,36,2.00
2009,04,24,01,37,2.00
2009,04,24,01,38,2.00
2009,04,24,01,39,2.00
2009,04,24,01,40,2.00
2009,04,24,01,41,2.00
2009,04,24,01,42,2.00
2009,04,24,01,43,2.00
2009,04,24,01,44,2.00
2009,04,24,01,45,2.00
2009,04,24,01,46,2.10
2009,04,24,01,47,2.10
2009,04,24,01,48,2.10
2009,04,24,01,49,2.10
2009,04,24,01,50,2.10
2009,04,24,01,51,2.20
2009,04,24,01,52,2.20
2009,04,24,01,53,2.20
2009,04,24,01,54,2.20
2009,04,24,01,55,2.20
2009,04,24,01,56,2.20
2009,04,24,01,57,2.20
2009,04,24,01,58,2.20
2009,04,24,01,59,2.20
2009,04,24,02,00,2.20
2009,04,24,02,01,2.20
2009,04,24,02,02,2.20
2009,04,24,02,03,2.20
2009,04,24,02,04,2.20
2009,04,24,02,05,2.20
2009,04,24,02,06,2.20
2009,04,24,02,07,2.10
2009,04,24,02,08,2.10
2009,04,24,02,09,2.10
2009,04,24,02,10,2.10
2009,04,24,02,11,2.10
2009,04,24,02,12,2.00
2009,04,24,02,13,2.00
2009,04,24,02,14,2.00
2009,04,24,02,15,2.00
2009,04,24,02,16,2.00
2009,04,24,02,17,2.00
2009,04,24,02,18,2.00
2009,04,24,02,19,2.00
2009,04,24,02,20,2.00
2009,04,24,02,21,2.00
2009,04,24,02,22,2.00
2009,04,24,02,23,2.00
2009,04,24,02,24,2.00
2009,04,24,02,25,2.00
2009,04,24,02,26,2.00
2009,04,24,02,27,2.00
2009,04,24,02,28,2.00
2009,04,24,02,29,2.00
2009,04,24,02,30,2.00
2009,04,24,02,31,2.00
2009,04,24,02,32,2.00
2009,04,24,02,33,2.00
2009,04,24,02,34,2.00
2009,04,24,02,35,2.00
2009,04,24,02,36,2.00
2009,04,24,02,37,2.00
2009,04,24,02,38,2.00
2009,04,24,02,39,2.00
2009,04,24,02,40,2.00
2009,04,24,02,41,2.00
2009,04,24,02,42,2.00
2009,04,24,02,43,2.00
2009,04,24,02,44,1.90
2009,04,24,02,45,1.90
2009,04,24,02,46,1.90
2009,04,24,02,47,1.90
2009,04,24,02,48,1.90
2009,04,24,02,49,1.80
2009,04,24,02,50,1.80
2009,04,24,02,51,1.80
2009,04,24,02,52,1.80
2009,04,24,02,53,1.80
2009,04,24,02,54,1.80
2009,04,24,02,55,1.80
2009,04,24,02,56,1.80
2009,04,24,02,57,1.80
2009,04,24,02,58,1.80
2009,04,24,02,59,1.80
2009,04,24,03,00,1.80
2009,04,24,03,01,1.80
2009,04,24,03,02,1.80
2009,04,24,03,03,1.80
2009,04,24,03,04,1.80
2009,04,24,03,05,1.80
2009,04,24,03,06,1.80
2009,04,24,03,07,1.80
2009,04,24,03,08,1.80
2009,04,24,03,09,1.80
2009,04,24,03,10,1.80
2009,04,24,03,11,1.70
2009,04,24,03,12,1.70
2009,04,24,03,13,1.70
2009,04,24,03,14,1.70
2009,04,24,03,15,1.60
2009,04,24,03,16,1.60
2009,04,24,03,17,1.70
2009,04,24,03,18,1.70
2009,04,24,03,19,1.70
2009,04,24,03,20,1.80
2009,04,24,03,21,1.80
2009,04,24,03,22,1.80
2009,04,24,03,23,1.80
2009,04,24,03,24,1.90
2009,04,24,03,25,1.90
2009,04,24,03,26,2.00
2009,04,24,03,27,2.00
2009,04,24,03,28,2.00
2009,04,24,03,29,2.10
2009,04,24,03,30,2.10
2009,04,24,03,31,2.10
2009,04,24,03,32,2.10
2009,04,24,03,33,2.20
2009,04,24,03,34,2.20
2009,04,24,03,35,2.20
2009,04,24,03,36,2.20
2009,04,24,03,37,2.20
2009,04,24,03,38,2.20
2009,04,24,03,39,2.20
2009,04,24,03,40,2.20
2009,04,24,03,41,2.20
2009,04,24,03,42,2.20
2009,04,24,03,43,2.20
2009,04,24,03,44,2.20
2009,04,24,03,45,2.20
2009,04,24,03,46,2.20
2009,04,24,03,47,2.20
2009,04,24,03,48,2.20
2009,04,24,03,49,2.20
2009,04,24,03,50,2.20
2009,04,24,03,51,2.20
2009,04,24,03,52,2.20
2009,04,24,03,53,2.20
2009,04,24,03,54,2.20
2009,04,24,03,55,2.20
2009,04,24,03,56,2.20
2009,04,24,03,57,2.10
2009,04,24,03,58,2.10
2009,04,24,03,59,2.10
2009,04,24,04,00,2.10
2009,04,24,04,01,2.10
2009,04,24,04,02,2.00
2009,04,24,04,03,2.00
2009,04,24,04,04,2.00
2009,04,24,04,05,2.00
2009,04,24,04,06,2.00
2009,04,24,04,07,1.90
2009,04,24,04,08,1.90
2009,04,24,04,09,1.90
2009,04,24,04,10,1.80
2009,04,24,04,11,1.80
2009,04,24,04,12,1.80
2009,04,24,04,13,1.80
2009,04,24,04,14,1.80
2009,04,24,04,15,1.80
2009,04,24,04,16,1.70
2009,04,24,04,17,1.70
2009,04,24,04,18,1.70
2009,04,24,04,19,1.60
2009,04,24,04,20,1.60
2009,04,24,04,21,1.60
2009,04,24,04,22,1.60
2009,04,24,04,23,1.50
2009,04,24,04,24,1.50
2009,04,24,04,25,1.50
2009,04,24,04,26,1.40
2009,04,24,04,27,1.40
2009,04,24,04,28,1.30
2009,04,24,04,29,1.30
2009,04,24,04,30,1.30
2009,04,24,04,31,1.20
2009,04,24,04,32,1.20
2009,04,24,04,33,1.10
2009,04,24,04,34,1.10
2009,04,24,04,35,1.00
2009,04,24,04,36,1.00
2009,04,24,04,37,0.90
2009,04,24,04,38,0.80
2009,04,24,04,39,0.80
2009,04,24,04,40,0.80
2009,04,24,04,41,0.80
2009,04,24,04,42,0.70
2009,04,24,04,43,0.70
2009,04,24,04,44,0.60
2009,04,24,04,45,0.60
2009,04,24,04,46,0.50
2009,04,24,04,47,0.50
2009,04,24,04,48,0.50
2009,04,24,04,49,0.40
2009,04,24,04,50,0.40
2009,04,24,04,51,0.40
2009,04,24,04,52,0.40
2009,04,24,04,53,0.30
2009,04,24,04,54,0.30
2009,04,24,04,55,0.20
2009,04,24,04,56,0.20
2009,04,24,04,57,0.20
2009,04,24,04,58,0.20
2009,04,24,04,59,0.10
2009,04,24,05,00,0.10
2009,04,24,05,01,0.10
2009,04,24,05,02,0.10
2009,04,24,05,03,0.10
2009,04,24,05,04,0.10
2009,04,24,05,05,0.10
2009,04,24,05,06,0.10
2009,04,24,05,07,0.10
2009,04,24,05,08,0.20
2009,04,24,05,09,0.20
2009,04,24,05,10,0.20
2009,04,24,05,11,0.20
2009,04,24,05,12,0.30
2009,04,24,05,13,0.30
2009,04,24,05,14,0.30
2009,04,24,05,15,0.30
2009,04,24,05,16,0.30
2009,04,24,05,17,0.40
2009,04,24,05,18,0.40
2009,04,24,05,19,0.40
2009,04,24,05,20,0.40
2009,04,24,05,21,0.40
2009,04,24,05,22,0.40
2009,04,24,05,23,0.40
2009,04,24,05,24,0.40
2009,04,24,05,25,0.40
2009,04,24,05,26,0.40
2009,04,24,05,27,0.40
2009,04,24,05,28,0.30
2009,04,24,05,29,0.30
2009,04,24,05,30,0.30
2009,04,24,05,31,0.30
2009,04,24,05,32,0.20
2009,04,24,05,33,0.20
2009,04,24,05,34,0.20
2009,04,24,05,35,0.20
2009,04,24,05,36,0.10
2009,04,24,05,37,0.10
2009,04,24,05,38,0.10
2009,04,24,05,39,0.10
2009,04,24,05,40,0.10
2009,04,24,05,41,0.10
2009,04,24,05,42,0.10
2009,04,24,05,43,0.10
2009,04,24,05,44,0.10
2009,04,24,05,45,0.10
2009,04,24,05,46,0.00
2009,04,24,05,47,-0.10
2009,04,24,05,48,-0.10
2009,04,24,05,49,-0.10
2009,04,24,05,50,-0.10
2009,04,24,05,51,-0.10
2009,04,24,05,52,-0.10
2009,04,24,05,53,-0.10
2009,04,24,05,54,-0.10
2009,04,24,05,55,-0.10
2009,04,24,05,56,-0.10
2009,04,24,05,57,-0.10
2009,04,24,05,58,-0.20
2009,04,24,05,59,-0.20
2009,04,24,06,00,-0.20
2009,04,24,06,01,-0.20
2009,04,24,06,02,-0.20
2009,04,24,06,03,-0.20
2009,04,24,06,04,-0.20
2009,04,24,06,05,-0.20
2009,04,24,06,06,-0.20
2009,04,24,06,07,-0.20
2009,04,24,06,08,-0.20
2009,04,24,06,09,-0.20
2009,04,24,06,10,-0.20
2009,04,24,06,11,-0.20
2009,04,24,06,12,-0.20
2009,04,24,06,13,-0.20
2009,04,24,06,14,-0.20
2009,04,24,06,15,-0.20
2009,04,24,06,16,-0.20
2009,04,24,06,17,-0.20
2009,04,24,06,18,-0.20
2009,04,24,06,19,-0.20
2009,04,24,06,20,-0.20
2009,04,24,06,21,-0.20
2009,04,24,06,22,-0.10
2009,04,24,06,23,-0.10
2009,04,24,06,24,-0.10
2009,04,24,06,25,-0.10
2009,04,24,06,26,-0.10
2009,04,24,06,27,-0.10
2009,04,24,06,28,-0.10
2009,04,24,06,29,-0.10
2009,04,24,06,30,-0.10
2009,04,24,06,31,-0.10
2009,04,24,06,32,-0.10
2009,04,24,06,33,-0.10
2009,04,24,06,34,-0.10
2009,04,24,06,35,-0.10
2009,04,24,06,36,-0.10
2009,04,24,06,37,-0.10
2009,04,24,06,38,-0.10
2009,04,24,06,39,-0.10
2009,04,24,06,40,-0.10
2009,04,24,06,41,-0.10
2009,04,24,06,42,-0.10
2009,04,24,06,43,-0.10
2009,04,24,06,44,-0.10
2009,04,24,06,45,-0.10
2009,04,24,06,46,-0.10
2009,04,24,06,47,-0.10
2009,04,24,06,48,-0.10
2009,04,24,06,49,-0.10
2009,04,24,06,50,-0.10
2009,04,24,06,51,-0.10
2009,04,24,06,52,-0.10
2009,04,24,06,53,-0.10
2009,04,24,06,54,-0.10
2009,04,24,06,55,-0.10
2009,04,24,06,56,-0.10
2009,04,24,06,57,-0.10
2009,04,24,06,58,-0.10
2009,04,24,06,59,-0.10
2009,04,24,07,00,-0.10
2009,04,24,07,01,-0.10
2009,04,24,07,02,-0.10
2009,04,24,07,03,-0.10
2009,04,24,07,04,-0.10
2009,04,24,07,05,-0.10
2009,04,24,07,06,0.10
2009,04,24,07,07,0.10
2009,04,24,07,08,0.10
2009,04,24,07,09,0.10
2009,04,24,07,10,0.10
2009,04,24,07,11,0.10
2009,04,24,07,12,0.10
2009,04,24,07,13,0.10
2009,04,24,07,14,0.20
2009,04,24,07,15,0.20
2009,04,24,07,16,0.20
2009,04,24,07,17,0.20
2009,04,24,07,18,0.30
2009,04,24,07,19,0.30
2009,04,24,07,20,0.40
2009,04,24,07,21,0.40
2009,04,24,07,22,0.40
2009,04,24,07,23,0.50
2009,04,24,07,24,0.50
2009,04,24,07,25,0.60
2009,04,24,07,26,0.70
2009,04,24,07,27,0.80
2009,04,24,07,28,0.80
2009,04,24,07,29,0.90
2009,04,24,07,30,0.90
2009,04,24,07,31,1.00
2009,04,24,07,32,1.10
2009,04,24,07,33,1.10
2009,04,24,07,34,1.20
2009,04,24,07,35,1.20
2009,04,24,07,36,1.30
2009,04,24,07,37,1.30
2009,04,24,07,38,1.40
2009,04,24,07,39,1.50
2009,04,24,07,40,1.50
2009,04,24,07,41,1.60
2009,04,24,07,42,1.60
2009,04,24,07,43,1.70
2009,04,24,07,44,1.80
2009,04,24,07,45,1.80
2009,04,24,07,46,1.90
2009,04,24,07,47,2.00
2009,04,24,07,48,2.00
2009,04,24,07,49,2.10
2009,04,24,07,50,2.20
2009,04,24,07,51,2.30
2009,04,24,07,52,2.30
2009,04,24,07,53,2.40
2009,04,24,07,54,2.50
2009,04,24,07,55,2.60
2009,04,24,07,56,2.70
2009,04,24,07,57,2.70
2009,04,24,07,58,2.70
2009,04,24,07,59,2.80
2009,04,24,08,00,2.90
2009,04,24,08,01,3.00
2009,04,24,08,02,3.10
2009,04,24,08,03,3.20
2009,04,24,08,04,3.20
2009,04,24,08,05,3.30
2009,04,24,08,06,3.40
2009,04,24,08,07,3.50
2009,04,24,08,08,3.60
2009,04,24,08,09,3.70
2009,04,24,08,10,3.80
2009,04,24,08,11,3.80
2009,04,24,08,12,3.90
2009,04,24,08,13,3.90
2009,04,24,08,14,4.00
2009,04,24,08,15,4.00
2009,04,24,08,16,4.10
2009,04,24,08,17,4.10
2009,04,24,08,18,4.20
2009,04,24,08,19,4.20
2009,04,24,08,20,4.40
2009,04,24,08,21,4.50
2009,04,24,08,22,4.50
2009,04,24,08,23,4.60
2009,04,24,08,24,4.60
2009,04,24,08,25,4.70
2009,04,24,08,26,4.80
2009,04,24,08,27,4.80
2009,04,24,08,28,4.90
2009,04,24,08,29,4.90
2009,04,24,08,30,5.00
2009,04,24,08,31,5.10
2009,04,24,08,32,5.10
2009,04,24,08,33,5.20
2009,04,24,08,34,5.30
2009,04,24,08,35,5.40
2009,04,24,08,36,5.50
2009,04,24,08,37,5.60
2009,04,24,08,38,5.70
2009,04,24,08,39,5.80
2009,04,24,08,40,5.90
2009,04,24,08,41,6.10
2009,04,24,08,42,6.20
2009,04,24,08,43,6.40
2009,04,24,08,44,6.60
2009,04,24,08,45,6.70
2009,04,24,08,46,6.80
2009,04,24,08,47,6.90
2009,04,24,08,48,7.00
2009,04,24,08,49,7.10
2009,04,24,08,50,7.20
2009,04,24,08,51,7.20
2009,04,24,08,52,7.30
2009,04,24,08,53,7.30
2009,04,24,08,54,7.40
2009,04,24,08,55,7.50
2009,04,24,08,56,7.50
2009,04,24,08,57,7.50
2009,04,24,08,58,7.50
2009,04,24,08,59,7.60
2009,04,24,09,00,7.60
2009,04,24,09,01,7.60
2009,04,24,09,02,7.70
2009,04,24,09,03,7.70
2009,04,24,09,04,7.80
2009,04,24,09,05,7.80
2009,04,24,09,06,7.80
2009,04,24,09,07,7.90
2009,04,24,09,08,7.90
2009,04,24,09,09,8.00
2009,04,24,09,10,8.00
2009,04,24,09,11,8.10
2009,04,24,09,12,8.20
2009,04,24,09,13,8.20
2009,04,24,09,14,8.30
2009,04,24,09,15,8.40
2009,04,24,09,16,8.40
2009,04,24,09,17,8.50
2009,04,24,09,18,8.60
2009,04,24,09,19,8.70
2009,04,24,09,20,8.70
2009,04,24,09,21,8.80
2009,04,24,09,22,8.80
2009,04,24,09,23,8.90
2009,04,24,09,24,9.00
2009,04,24,09,25,9.00
2009,04,24,09,26,9.10
2009,04,24,09,27,9.20
2009,04,24,09,28,9.20
2009,04,24,09,29,9.20
2009,04,24,09,30,9.30
2009,04,24,09,31,9.40
2009,04,24,09,32,9.40
2009,04,24,09,33,9.50
2009,04,24,09,34,9.50
2009,04,24,09,35,9.60
2009,04,24,09,36,9.60
2009,04,24,09,37,9.70
2009,04,24,09,38,9.70
2009,04,24,09,39,9.70
2009,04,24,09,40,9.80
2009,04,24,09,41,9.80
2009,04,24,09,42,9.90
2009,04,24,09,43,9.90
2009,04,24,09,44,9.90
2009,04,24,09,45,9.90
2009,04,24,09,46,10.00
2009,04,24,09,47,10.10
2009,04,24,09,48,10.10
2009,04,24,09,49,10.20
2009,04,24,09,50,10.20
2009,04,24,09,51,10.30
2009,04,24,09,52,10.40
2009,04,24,09,53,10.40
2009,04,24,09,54,10.40
2009,04,24,09,55,10.40
2009,04,24,09,56,10.40
2009,04,24,09,57,10.40
2009,04,24,09,58,10.30
2009,04,24,09,59,10.40
2009,04,24,10,00,10.40
2009,04,24,10,01,10.40
2009,04,24,10,02,10.40
2009,04,24,10,03,10.40
2009,04,24,10,04,10.50
2009,04,24,10,05,10.60
2009,04,24,10,06,10.60
2009,04,24,10,07,10.60
2009,04,24,10,08,10.70
2009,04,24,10,09,10.70
2009,04,24,10,10,10.80
2009,04,24,10,11,10.80
2009,04,24,10,12,10.80
2009,04,24,10,13,10.80
2009,04,24,10,14,10.80
2009,04,24,10,15,10.80
2009,04,24,10,16,10.80
2009,04,24,10,17,10.80
2009,04,24,10,18,10.80
2009,04,24,10,19,10.90
2009,04,24,10,20,10.80
2009,04,24,10,21,10.80
2009,04,24,10,22,10.80
2009,04,24,10,23,10.80
2009,04,24,10,24,10.90
2009,04,24,10,25,10.90
2009,04,24,10,26,10.90
2009,04,24,10,27,11.00
2009,04,24,10,28,11.10
2009,04,24,10,29,10.90
2009,04,24,10,30,11.00
2009,04,24,10,31,11.10
2009,04,24,10,32,11.10
2009,04,24,10,33,11.10
2009,04,24,10,34,11.20
2009,04,24,10,35,11.30
2009,04,24,10,36,11.40
2009,04,24,10,37,11.40
2009,04,24,10,38,11.40
2009,04,24,10,39,11.40
2009,04,24,10,40,11.40
2009,04,24,10,41,11.40
2009,04,24,10,42,11.50
2009,04,24,10,43,11.60
2009,04,24,10,44,11.60
2009,04,24,10,45,11.60
2009,04,24,10,46,11.60
2009,04,24,10,47,11.70
2009,04,24,10,48,11.70
2009,04,24,10,49,11.70
2009,04,24,10,50,11.80
2009,04,24,10,51,11.80
2009,04,24,10,52,11.80
2009,04,24,10,53,11.80
2009,04,24,10,54,11.80
2009,04,24,10,55,11.70
2009,04,24,10,56,11.70
2009,04,24,10,57,11.70
2009,04,24,10,58,11.70
2009,04,24,10,59,11.70
2009,04,24,11,00,11.70
2009,04,24,11,01,11.70
2009,04,24,11,02,11.80
2009,04,24,11,03,11.80
2009,04,24,11,04,11.80
2009,04,24,11,05,11.80
2009,04,24,11,06,11.80
2009,04,24,11,07,11.80
2009,04,24,11,08,11.80
2009,04,24,11,09,11.80
2009,04,24,11,10,11.90
2009,04,24,11,11,11.90
2009,04,24,11,12,11.90
2009,04,24,11,13,11.90
2009,04,24,11,14,11.80
2009,04,24,11,15,11.80
2009,04,24,11,16,11.90
2009,04,24,11,17,11.90
2009,04,24,11,18,12.00
2009,04,24,11,19,12.00
2009,04,24,11,20,12.00
2009,04,24,11,21,11.80
2009,04,24,11,22,11.80
2009,04,24,11,23,11.80
2009,04,24,11,24,11.80
2009,04,24,11,25,12.00
2009,04,24,11,26,12.00
2009,04,24,11,27,12.10
2009,04,24,11,28,12.20
2009,04,24,11,29,12.20
2009,04,24,11,30,12.20
2009,04,24,11,31,12.30
2009,04,24,11,32,12.30
2009,04,24,11,33,12.40
2009,04,24,11,34,12.40
2009,04,24,11,35,12.40
2009,04,24,11,36,12.40
2009,04,24,11,37,12.40
2009,04,24,11,38,12.40
2009,04,24,11,39,12.40
2009,04,24,11,40,12.40
2009,04,24,11,41,12.40
2009,04,24,11,42,12.40
2009,04,24,11,43,12.30
2009,04,24,11,44,12.30
2009,04,24,11,45,12.30
2009,04,24,11,46,12.40
2009,04,24,11,47,12.40
2009,04,24,11,48,12.30
2009,04,24,11,49,12.30
2009,04,24,11,50,12.30
2009,04,24,11,51,12.30
2009,04,24,11,52,12.30
2009,04,24,11,53,12.30
2009,04,24,11,54,12.30
2009,04,24,11,55,12.20
2009,04,24,11,56,12.30
2009,04,24,11,57,12.30
2009,04,24,11,58,12.30
2009,04,24,11,59,12.40
2009,04,24,12,00,12.40
2009,04,24,12,01,12.40
2009,04,24,12,02,12.40
2009,04,24,12,03,12.50
2009,04,24,12,04,12.60
2009,04,24,12,05,12.60
2009,04,24,12,06,12.60
2009,04,24,12,07,12.60
2009,04,24,12,08,12.70
2009,04,24,12,09,12.70
2009,04,24,12,10,12.70
2009,04,24,12,11,12.70
2009,04,24,12,12,12.70
2009,04,24,12,13,12.70
2009,04,24,12,14,12.70
2009,04,24,12,15,12.80
2009,04,24,12,16,12.80
2009,04,24,12,17,12.80
2009,04,24,12,18,12.90
2009,04,24,12,19,13.00
2009,04,24,12,20,13.10
2009,04,24,12,21,13.10
2009,04,24,12,22,13.20
2009,04,24,12,23,13.20
2009,04,24,12,24,13.10
2009,04,24,12,25,13.10
2009,04,24,12,26,13.10
2009,04,24,12,27,13.10
2009,04,24,12,28,13.20
2009,04,24,12,29,13.10
2009,04,24,12,30,13.00
2009,04,24,12,31,13.00
2009,04,24,12,32,13.00
2009,04,24,12,33,13.00
2009,04,24,12,34,13.00
2009,04,24,12,35,13.00
2009,04,24,12,36,13.00
2009,04,24,12,37,13.00
2009,04,24,12,38,13.00
2009,04,24,12,39,13.00
2009,04,24,12,40,13.00
2009,04,24,12,41,13.00
2009,04,24,12,42,13.10
2009,04,24,12,43,13.00
2009,04,24,12,44,13.00
2009,04,24,12,45,13.00
2009,04,24,12,46,12.90
2009,04,24,12,47,12.90
2009,04,24,12,48,13.00
2009,04,24,12,49,13.00
2009,04,24,12,50,13.00
2009,04,24,12,51,13.00
2009,04,24,12,52,13.00
2009,04,24,12,53,13.10
2009,04,24,12,54,13.20
2009,04,24,12,55,13.30
2009,04,24,12,56,13.30
2009,04,24,12,57,13.30
2009,04,24,12,58,13.40
2009,04,24,12,59,13.40
2009,04,24,13,00,13.40
2009,04,24,13,01,13.50
2009,04,24,13,02,13.50
2009,04,24,13,03,13.60
2009,04,24,13,04,13.70
2009,04,24,13,05,13.70
2009,04,24,13,06,13.80
2009,04,24,13,07,13.80
2009,04,24,13,08,13.70
2009,04,24,13,09,13.70
2009,04,24,13,10,13.70
2009,04,24,13,11,13.70
2009,04,24,13,12,13.70
2009,04,24,13,13,13.70
2009,04,24,13,14,13.70
2009,04,24,13,15,13.70
2009,04,24,13,16,13.70
2009,04,24,13,17,13.70
2009,04,24,13,18,13.70
2009,04,24,13,19,13.70
2009,04,24,13,20,13.70
2009,04,24,13,21,13.70
2009,04,24,13,22,13.70
2009,04,24,13,23,13.80
2009,04,24,13,24,13.90
2009,04,24,13,25,13.90
2009,04,24,13,26,14.00
2009,04,24,13,27,13.90
2009,04,24,13,28,13.80
2009,04,24,13,29,13.80
2009,04,24,13,30,13.80
2009,04,24,13,31,13.80
2009,04,24,13,32,13.70
2009,04,24,13,33,13.70
2009,04,24,13,34,13.70
2009,04,24,13,35,13.60
2009,04,24,13,36,13.50
2009,04,24,13,37,13.50
2009,04,24,13,38,13.50
2009,04,24,13,39,13.50
2009,04,24,13,40,13.60
2009,04,24,13,41,13.60
2009,04,24,13,42,13.50
2009,04,24,13,43,13.50
2009,04,24,13,44,13.50
2009,04,24,13,45,13.30
2009,04,24,13,46,13.30
2009,04,24,13,47,13.30
2009,04,24,13,48,13.40
2009,04,24,13,49,13.50
2009,04,24,13,50,13.60
2009,04,24,13,51,13.70
2009,04,24,13,52,13.80
2009,04,24,13,53,13.90
2009,04,24,13,54,13.90
2009,04,24,13,55,14.00
2009,04,24,13,56,14.10
2009,04,24,13,57,14.10
2009,04,24,13,58,14.10
2009,04,24,13,59,14.10
2009,04,24,14,00,14.00
2009,04,24,14,01,14.00
2009,04,24,14,02,14.00
2009,04,24,14,03,14.00
2009,04,24,14,04,14.10
2009,04,24,14,05,14.10
2009,04,24,14,06,14.10
2009,04,24,14,07,14.10
2009,04,24,14,08,14.10
2009,04,24,14,09,14.00
2009,04,24,14,10,13.90
2009,04,24,14,11,13.90
2009,04,24,14,12,13.90
2009,04,24,14,13,13.90
2009,04,24,14,14,13.70
2009,04,24,14,15,13.60
2009,04,24,14,16,13.60
2009,04,24,14,17,13.50
2009,04,24,14,18,13.60
2009,04,24,14,19,13.50
2009,04,24,14,20,13.50
2009,04,24,14,21,13.50
2009,04,24,14,22,13.40
2009,04,24,14,23,13.30
2009,04,24,14,24,13.40
2009,04,24,14,25,13.50
2009,04,24,14,26,13.60
2009,04,24,14,27,13.60
2009,04,24,14,28,13.50
2009,04,24,14,29,13.50
2009,04,24,14,30,13.50
2009,04,24,14,31,13.50
2009,04,24,14,32,13.50
2009,04,24,14,33,13.60
2009,04,24,14,34,13.60
2009,04,24,14,35,13.70
2009,04,24,14,36,13.70
2009,04,24,14,37,13.80
2009,04,24,14,38,13.80
2009,04,24,14,39,13.70
2009,04,24,14,40,13.80
2009,04,24,14,41,13.80
2009,04,24,14,42,13.70
2009,04,24,14,43,13.70
2009,04,24,14,44,13.70
2009,04,24,14,45,13.70
2009,04,24,14,46,13.70
2009,04,24,14,47,13.70
2009,04,24,14,48,13.70
2009,04,24,14,49,13.60
2009,04,24,14,50,13.50
2009,04,24,14,51,13.30
2009,04,24,14,52,13.30
2009,04,24,14,53,13.30
2009,04,24,14,54,13.30
2009,04,24,14,55,13.30
2009,04,24,14,56,13.50
2009,04,24,14,57,13.50
2009,04,24,14,58,13.50
2009,04,24,14,59,13.50
2009,04,24,15,00,13.50
2009,04,24,15,01,13.40
2009,04,24,15,02,13.40
2009,04,24,15,03,13.40
2009,04,24,15,04,13.30
2009,04,24,15,05,13.30
2009,04,24,15,06,13.40
2009,04,24,15,07,13.40
2009,04,24,15,08,13.40
2009,04,24,15,09,13.40
2009,04,24,15,10,13.30
2009,04,24,15,11,13.20
2009,04,24,15,12,13.20
2009,04,24,15,13,13.10
2009,04,24,15,14,13.10
2009,04,24,15,15,13.10
2009,04,24,15,16,13.10
2009,04,24,15,17,13.20
2009,04,24,15,18,13.30
2009,04,24,15,19,13.30
2009,04,24,15,20,13.30
2009,04,24,15,21,13.30
2009,04,24,15,22,13.40
2009,04,24,15,23,13.40
2009,04,24,15,24,13.40
2009,04,24,15,25,13.50
2009,04,24,15,26,13.50
2009,04,24,15,27,13.60
2009,04,24,15,28,13.70
2009,04,24,15,29,13.70
2009,04,24,15,30,13.80
2009,04,24,15,31,13.90
2009,04,24,15,32,14.00
2009,04,24,15,33,14.00
2009,04,24,15,34,14.10
2009,04,24,15,35,14.10
2009,04,24,15,36,14.00
2009,04,24,15,37,13.90
2009,04,24,15,38,13.90
2009,04,24,15,39,14.00
2009,04,24,15,40,14.00
2009,04,24,15,41,14.10
2009,04,24,15,42,14.20
2009,04,24,15,43,14.30
2009,04,24,15,44,14.40
2009,04,24,15,45,14.50
2009,04,24,15,46,14.60
2009,04,24,15,47,14.60
2009,04,24,15,48,14.70
2009,04,24,15,49,14.70
2009,04,24,15,50,14.80
2009,04,24,15,51,14.90
2009,04,24,15,52,15.00
2009,04,24,15,53,15.00
2009,04,24,15,54,15.10
2009,04,24,15,55,15.10
2009,04,24,15,56,15.10
2009,04,24,15,57,15.20
2009,04,24,15,58,15.20
2009,04,24,15,59,15.10
2009,04,24,16,00,15.00
2009,04,24,16,01,14.90
2009,04,24,16,02,14.80
2009,04,24,16,03,14.80
2009,04,24,16,04,14.70
2009,04,24,16,05,14.60
2009,04,24,16,06,14.60
2009,04,24,16,07,14.50
2009,04,24,16,08,14.40
2009,04,24,16,09,14.40
2009,04,24,16,10,14.30
2009,04,24,16,11,14.30
2009,04,24,16,12,14.30
2009,04,24,16,13,14.30
2009,04,24,16,14,14.30
2009,04,24,16,15,14.20
2009,04,24,16,16,14.20
2009,04,24,16,17,14.20
2009,04,24,16,18,14.10
2009,04,24,16,19,14.10
2009,04,24,16,20,14.10
2009,04,24,16,21,14.10
2009,04,24,16,22,14.10
2009,04,24,16,23,14.00
2009,04,24,16,24,14.00
2009,04,24,16,25,13.90
2009,04,24,16,26,13.90
2009,04,24,16,27,13.80
2009,04,24,16,28,13.70
2009,04,24,16,29,13.70
2009,04,24,16,30,13.70
2009,04,24,16,31,13.70
2009,04,24,16,32,13.70
2009,04,24,16,33,13.70
2009,04,24,16,34,13.60
2009,04,24,16,35,13.60
2009,04,24,16,36,13.60
2009,04,24,16,37,13.50
2009,04,24,16,38,13.50
2009,04,24,16,39,13.50
2009,04,24,16,40,13.50
2009,04,24,16,41,13.50
2009,04,24,16,42,13.50
2009,04,24,16,43,13.50
2009,04,24,16,44,13.50
2009,04,24,16,45,13.40
2009,04,24,16,46,13.40
2009,04,24,16,47,13.40
2009,04,24,16,48,13.40
2009,04,24,16,49,13.40
2009,04,24,16,50,13.40
2009,04,24,16,51,13.40
2009,04,24,16,52,13.40
2009,04,24,16,53,13.40
2009,04,24,16,54,13.40
2009,04,24,16,55,13.40
2009,04,24,16,56,13.40
2009,04,24,16,57,13.40
2009,04,24,16,58,13.30
2009,04,24,16,59,13.30
2009,04,24,17,00,13.30
2009,04,24,17,01,13.30
2009,04,24,17,02,13.30
2009,04,24,17,03,13.30
2009,04,24,17,04,13.20
2009,04,24,17,05,13.20
2009,04,24,17,06,13.20
2009,04,24,17,07,13.20
2009,04,24,17,08,13.20
2009,04,24,17,09,13.20
2009,04,24,17,10,13.20
2009,04,24,17,11,13.20
2009,04,24,17,12,13.20
2009,04,24,17,13,13.20
2009,04,24,17,14,13.10
2009,04,24,17,15,13.10
2009,04,24,17,16,13.10
2009,04,24,17,17,13.10
2009,04,24,17,18,13.10
2009,04,24,17,19,13.10
2009,04,24,17,20,13.10
2009,04,24,17,21,13.10
2009,04,24,17,22,13.10
2009,04,24,17,23,13.10
2009,04,24,17,24,13.00
2009,04,24,17,25,13.00
2009,04,24,17,26,13.00
2009,04,24,17,27,12.90
2009,04,24,17,28,12.90
2009,04,24,17,29,12.90
2009,04,24,17,30,12.90
2009,04,24,17,31,12.80
2009,04,24,17,32,12.80
2009,04,24,17,33,12.80
2009,04,24,17,34,12.80
2009,04,24,17,35,12.80
2009,04,24,17,36,12.80
2009,04,24,17,37,12.80
2009,04,24,17,38,12.80
2009,04,24,17,39,12.70
2009,04,24,17,40,12.70
2009,04,24,17,41,12.60